San Antonio, TX

6:48 PM CDT on August 28, 2016 (GMT -0500)
Kelly Air Force Base

Weather History for KSKF - December, 2012

Change the Weather History Date:

Friday, December 7, 2012

  Actual Average Record
Temperature  
Mean Temperature 68 °F -  
Max Temperature 76 °F 65 °F 81 °F (2007)
Min Temperature 59 °F 42 °F 25 °F (2011)
Cooling Degree Days 2    
Growing Degree Days 18 (Base 50)    
Moisture  
Dew Point 61 °F    
Average Humidity 92    
Maximum Humidity 100    
Minimum Humidity 61    
Precipitation  
Precipitation 0.00 in - - ()
Sea Level Pressure  
Sea Level Pressure 29.84 in    
Wind  
Wind Speed 2 mph (SSE)    
Max Wind Speed 9 mph    
Max Gust Speed -    
Visibility 5 miles    
Events Fog , Rain    
Averages and records for this station are not official NWS values.
T = Trace of Precipitation, MM = Missing Value Source: NWS Daily Summary

Daily Weather History Graph

Daily Weather History Graph

Search for Another Location

Airport or City:

Trip Planner

Search our weather history database for the weather conditions in past years. The results will help you decide how hot, cold, wet, or windy it might be!

Date:

Astronomy

Dec. 07, 2012 Rise Set
Actual Time 7:16 AM CST 5:35 PM CST
Civil Twilight 6:50 AM CST 6:01 PM CST
Nautical Twilight 6:20 AM CST 6:31 PM CST
Astronomical Twilight 5:51 AM CST 7:00 PM CST
Moon 1:01 AM CST (12/7) 1:11 PM CST (12/7)
Length of Visible Light 11h 11m
Length of Day
10h 19m
Last Quarter, 38% of the Moon is Illuminated
Dec 7
Last Quarter
Dec 13
New
Dec 19
First Quarter
Dec 28
Full
Jan 4
Last Quarter

Hourly Weather History & Observations

Time (CST) Temp. Dew Point Humidity Pressure Visibility Wind Dir Wind Speed Gust Speed Precip Events Conditions
12:20 AM 59.0 °F 53.6 °F 82% 29.86 in 10.0 mi Calm Calm - N/A   Overcast
12:38 AM 59.0 °F 57.2 °F 94% 29.86 in 10.0 mi SSE 4.6 mph - N/A   Overcast
12:52 AM 60.8 °F 59.0 °F 94% 29.86 in 7.0 mi Calm Calm - N/A   Overcast
12:55 AM 60.4 °F 58.5 °F 93% 29.86 in 6.0 mi SSE 3.5 mph - N/A   Overcast
1:01 AM 60.8 °F 59.0 °F 94% 29.86 in 4.0 mi Calm Calm - N/A   Overcast
1:04 AM 60.8 °F 59.0 °F 94% 29.86 in 2.5 mi SSE 4.6 mph - N/A   Overcast
1:07 AM 60.8 °F 59.0 °F 94% 29.86 in 1.8 mi South 4.6 mph - N/A   Overcast
1:08 AM 60.8 °F 59.0 °F 94% 29.86 in 1.5 mi South 4.6 mph - N/A   Overcast
1:09 AM 60.8 °F 59.0 °F 94% 29.86 in 1.2 mi SSE 3.5 mph - N/A   Overcast
1:10 AM 60.8 °F 59.0 °F 94% 29.86 in 1.2 mi SSE 4.6 mph - N/A   Overcast
1:11 AM 60.8 °F 59.0 °F 94% 29.86 in 1.0 mi SSE 4.6 mph - N/A   Mist
1:12 AM 60.8 °F 59.0 °F 94% 29.86 in 1.0 mi SSE 5.8 mph - N/A   Mist
1:13 AM 60.8 °F 59.0 °F 94% 29.86 in 1.0 mi SSE 4.6 mph - N/A   Mist
1:17 AM 60.8 °F 59.0 °F 94% 29.85 in 0.8 mi South 3.5 mph - N/A   Mist
1:44 AM 60.8 °F 59.0 °F 94% 29.84 in 0.8 mi South 3.5 mph - N/A   Mist
1:46 AM 60.8 °F 59.0 °F 94% 29.84 in 0.8 mi South 3.5 mph - N/A   Mist
1:55 AM 60.6 °F 60.1 °F 98% 29.85 in 0.8 mi Calm Calm - N/A   Mist
1:59 AM 60.8 °F 60.8 °F 100% 29.85 in 0.5 mi Calm Calm - N/A Fog Fog
2:55 AM 60.8 °F 60.4 °F 99% 29.84 in 0.5 mi Calm Calm - N/A Fog Fog
3:00 AM 60.8 °F 60.8 °F 100% 29.84 in 0.8 mi Calm Calm - N/A   Mist
3:20 AM 60.8 °F 60.8 °F 100% 29.83 in 0.8 mi Calm Calm - N/A   Mist
3:32 AM 60.8 °F 60.8 °F 100% 29.84 in 0.8 mi Calm Calm - N/A   Mist
3:38 AM 60.8 °F 60.8 °F 100% 29.84 in 1.0 mi Calm Calm - N/A   Mist
3:40 AM 60.8 °F 60.8 °F 100% 29.83 in 1.2 mi South 3.5 mph - N/A   Overcast
3:41 AM 60.8 °F 60.8 °F 100% 29.84 in 1.2 mi South 3.5 mph - N/A   Overcast
3:43 AM 60.8 °F 60.8 °F 100% 29.84 in 1.5 mi South 3.5 mph - N/A   Overcast
3:45 AM 60.8 °F 60.8 °F 100% 29.84 in 1.8 mi Calm Calm - N/A   Overcast
3:46 AM 60.8 °F 60.8 °F 100% 29.84 in 1.8 mi Calm Calm - N/A   Overcast
3:47 AM 60.8 °F 60.8 °F 100% 29.84 in 2.0 mi Calm Calm - N/A   Overcast
3:51 AM 60.8 °F 60.8 °F 100% 29.84 in 3.0 mi Calm Calm - N/A   Overcast
3:55 AM 61.5 °F 61.2 °F 99% 29.84 in 2.5 mi Calm Calm - N/A   Overcast
3:59 AM 60.8 °F 60.8 °F 100% 29.84 in 1.8 mi Calm Calm - N/A   Overcast
4:00 AM 60.8 °F 60.8 °F 100% 29.84 in 1.8 mi Calm Calm - N/A   Overcast
4:01 AM 60.8 °F 60.8 °F 100% 29.84 in 1.5 mi Calm Calm - N/A   Overcast
4:03 AM 60.8 °F 60.8 °F 100% 29.84 in 1.5 mi Calm Calm - N/A   Overcast
4:05 AM 60.8 °F 60.8 °F 100% 29.83 in 1.5 mi Calm Calm - N/A   Overcast
4:07 AM 60.8 °F 60.8 °F 100% 29.83 in 1.8 mi Calm Calm - N/A   Overcast
4:08 AM 60.8 °F 60.8 °F 100% 29.83 in 1.8 mi Calm Calm - N/A   Overcast
4:09 AM 60.8 °F 60.8 °F 100% 29.83 in 2.0 mi Calm Calm - N/A   Overcast
4:11 AM 60.8 °F 60.8 °F 100% 29.83 in 2.5 mi Calm Calm - N/A   Overcast
4:13 AM 60.8 °F 60.8 °F 100% 29.83 in 3.0 mi Calm Calm - N/A   Overcast
4:20 AM 60.8 °F 60.8 °F 100% 29.83 in 5.0 mi Calm Calm - N/A   Overcast
4:28 AM 60.8 °F 60.8 °F 100% 29.83 in 6.0 mi Calm Calm - N/A   Overcast
4:38 AM 60.8 °F 60.8 °F 100% 29.83 in 4.0 mi Calm Calm - N/A   Overcast
4:43 AM 60.8 °F 60.8 °F 100% 29.83 in 4.0 mi Calm Calm - N/A   Overcast
4:47 AM 60.8 °F 60.8 °F 100% 29.83 in 5.0 mi Calm Calm - N/A   Overcast
4:49 AM 60.8 °F 60.8 °F 100% 29.83 in 5.0 mi Calm Calm - N/A   Overcast
4:52 AM 60.8 °F 60.8 °F 100% 29.84 in 5.0 mi Calm Calm - N/A   Overcast
4:55 AM 61.5 °F 61.2 °F 99% 29.83 in 6.0 mi Calm Calm - N/A   Overcast
5:13 AM 60.8 °F 60.8 °F 100% 29.83 in 10.0 mi Calm Calm - N/A   Overcast
5:55 AM 61.9 °F 61.5 °F 99% 29.83 in 10.0 mi Calm Calm - N/A   Overcast
6:55 AM 63.0 °F 62.6 °F 99% 29.85 in 10.0 mi Calm Calm - N/A   Overcast
7:55 AM 63.5 °F 63.0 °F 98% 29.86 in 10.0 mi Calm Calm - N/A   Overcast
8:55 AM 65.5 °F 63.9 °F 94% 29.87 in 10.0 mi SSE 4.6 mph - N/A   Overcast
9:38 AM 66.2 °F 64.4 °F 94% 29.88 in 10.0 mi SSE 6.9 mph - N/A   Overcast
9:55 AM 66.6 °F 63.5 °F 90% 29.88 in 10.0 mi South 6.9 mph - N/A   Overcast
10:39 AM 68.0 °F 64.4 °F 88% 29.88 in 10.0 mi South 8.1 mph - N/A   Overcast
10:55 AM 67.6 °F 64.4 °F 89% 29.87 in 10.0 mi SSE 8.1 mph - N/A   Overcast
11:00 AM 68.0 °F 64.4 °F 88% 29.87 in 10.0 mi South 8.1 mph - N/A   Overcast
11:10 AM 68.0 °F 64.4 °F 88% 29.86 in 10.0 mi SSE 6.9 mph - N/A   Overcast
11:33 AM 68.0 °F 64.4 °F 88% 29.86 in 10.0 mi SSE 6.9 mph - N/A   Overcast
11:55 AM 69.8 °F 63.5 °F 80% 29.84 in 10.0 mi SE 9.2 mph - N/A   Overcast
11:59 AM 69.8 °F 62.6 °F 78% 29.84 in 10.0 mi SSE 9.2 mph - N/A Rain Light Rain
12:36 PM 71.6 °F 62.6 °F 73% 29.82 in 10.0 mi Calm Calm - N/A   Overcast
12:55 PM 71.4 °F 63.7 °F 76% 29.81 in 10.0 mi Calm Calm - N/A   Overcast
1:41 PM 73.4 °F 64.4 °F 73% 29.79 in 10.0 mi ENE 4.6 mph - N/A   Mostly Cloudy
1:55 PM 74.1 °F 63.5 °F 69% 29.78 in 10.0 mi ESE 3.5 mph - N/A   Partly Cloudy
2:55 PM 75.7 °F 63.9 °F 66% 29.76 in 10.0 mi Calm Calm - N/A   Scattered Clouds
3:55 PM 76.8 °F 62.4 °F 61% 29.75 in 10.0 mi ESE 8.1 mph - N/A   Mostly Cloudy
4:55 PM 75.2 °F 61.9 °F 63% 29.76 in 10.0 mi East 4.6 mph - N/A   Mostly Cloudy
5:55 PM 72.0 °F 61.0 °F 68% 29.76 in 10.0 mi East 5.8 mph - N/A   Mostly Cloudy
6:55 PM 67.3 °F 60.1 °F 78% 29.78 in 10.0 mi Calm Calm - N/A   Mostly Cloudy
7:55 PM 64.4 °F 59.0 °F 83% 29.79 in 10.0 mi Calm Calm - N/A   Mostly Cloudy
8:55 PM 65.7 °F 59.2 °F 80% 29.81 in 10.0 mi ESE 4.6 mph - N/A   Mostly Cloudy
9:55 PM 66.7 °F 60.8 °F 81% 29.82 in 10.0 mi SE 6.9 mph - N/A   Clear
10:55 PM 65.3 °F 60.6 °F 85% 29.83 in 10.0 mi ESE 4.6 mph - N/A   Clear
11:55 PM 63.5 °F 60.4 °F 90% 29.83 in 10.0 mi Calm Calm - N/A   Clear